[[{"header":{"parameterUnit":"m.s-1","parameterCategory":1,"la1":30.2991,"la2":30.254,"lo1":-89.0895,"lo2":-89.0444,"dy":0.0017,"dx":0.0017,"nx":28,"ny":28,"refTime":"2023-09-14T03:00:00:Z","depth":0,"parameterNumber":2,"parameterNumberName":"U-component_of_WINDS"},"data":[0,0,0,0,0,0,0,0,0,0,0,0,0,0,0,0,0,0,0,0,0,0,0,0,0,0,0,0,0,0,0,0,0,0,0,0,0,0,0,0,0,0,0,0,0,0,0,0,0,0,0,0,0,0,0,0,0,0,-2.1368,-2.1368,0,-2.1377,-2.1377,-2.1377,-2.1338,-2.1337,-2.1336,-2.1335,-2.1343,-2.1344,-2.1346,0,0,0,0,0,0,0,0,0,0,0,0,0,-2.1316,-2.1317,-2.1368,-2.1368,-2.1368,-2.1377,-2.1377,-2.1377,-2.1338,-2.1337,-2.1336,-2.1334,-2.1343,-2.1344,-2.1346,0,0,0,0,0,0,0,0,0,0,0,0,0,-2.1333,-2.1317,-2.1368,-2.135,-2.1348,-2.1377,-2.1377,-2.1377,-2.1339,-2.1337,-2.1335,-2.1334,-2.1342,-2.1344,-2.1346,-2.1392,0,0,-2.1352,-2.1353,0,0,0,0,0,0,0,0,-2.1332,-2.1335,-2.1352,-2.1351,-2.1349,-2.1355,-2.1362,-2.1382,-2.1339,-2.1342,-2.1335,-2.1333,-2.1348,-2.135,-2.1355,-2.1392,-2.1393,-2.1352,-2.1353,-2.1354,-2.1355,0,0,0,0,0,0,0,-2.1331,-2.1334,-2.1371,-2.1353,-2.1351,-2.1341,-2.1341,-2.1365,-2.1355,-2.1342,-2.1339,-2.1341,-2.1347,-2.1353,-2.1355,-2.1393,-2.1352,-2.1354,-2.1355,-2.1356,-2.1467,-2.1469,0,0,0,0,0,0,-2.1332,-2.1334,-2.1371,-2.1372,-2.1336,-2.1343,-2.1344,-2.1355,-2.1354,-2.1353,-2.1342,-2.1339,-2.1351,-2.1353,-2.1355,-2.1408,-2.1354,-2.1356,-2.1357,-2.1466,-2.1468,-2.147,0,0,0,0,0,0,-2.1331,-2.1336,-2.1371,-2.1352,-2.1356,-2.1346,-2.1358,-2.1356,-2.1362,-2.1355,-2.1352,-2.135,-2.135,-2.1352,-2.1383,-2.1407,-2.1357,-2.1358,-2.1464,-2.1466,-2.1469,-2.1514,0,0,0,0,0,0,-2.133,-2.1336,-2.1353,-2.1353,-2.1357,-2.1399,-2.136,-2.1357,-2.1365,-2.1361,-2.1362,-2.136,-2.1348,-2.138,-2.1385,-2.1409,-2.136,-2.1461,-2.1465,-2.1468,-2.151,-2.1518,-2.1525,0,0,0,0,0,-2.1328,-2.1366,-2.1355,-2.1359,-2.1379,-2.14,-2.1403,-2.1388,-2.1368,-2.1385,-2.138,-2.136,-2.1405,-2.1384,-2.1389,-2.1414,-2.146,-2.1464,-2.1468,-2.1507,-2.1517,-2.1524,0,0,0,0,0,0,-2.1369,-2.1365,-2.1353,-2.1391,-2.1396,-2.1394,-2.1415,-2.1399,-2.141,-2.1406,-2.1388,-2.1388,-2.1421,-2.1421,-2.1398,-2.1458,-2.1428,-2.1434,-2.1457,-2.1466,-2.1473,-2.1471,-2.1362,0,0,0,0,0,-2.1383,-2.1401,-2.1397,-2.1431,-2.1434,-2.1425,-2.1433,-2.1422,-2.1427,-2.1429,-2.1426,-2.1431,-2.1446,-2.1456,-2.147,-2.1511,-2.151,-2.1531,-2.1538,-2.1544,-2.1548,-2.1568,-2.1577,-2.1483,-2.1483,-2.1483,0,0,-2.1411,-2.1411,-2.1424,-2.1439,-2.1442,-2.1461,-2.1426,-2.1448,-2.1461,-2.1432,-2.146,-2.1459,-2.1463,-2.1499,-2.1515,-2.1499,-2.1574,-2.1549,-2.1554,-2.1554,-2.1574,-2.1583,-2.159,-2.1486,-2.1486,-2.1485,0,0,-2.1471,-2.1474,-2.1502,-2.1506,-2.151,-2.1504,-2.1511,-2.151,-2.1508,-2.1537,-2.1515,-2.1531,-2.1557,-2.1561,-2.1566,-2.1628,-2.161,-2.1633,-2.167,-2.169,-2.1698,-2.1704,-2.1725,-2.1733,-2.1638,-2.1638,-2.1638,0,-2.1505,-2.1533,-2.1519,-2.1541,-2.1549,-2.1523,-2.1551,-2.1556,-2.1564,-2.157,-2.1553,-2.1585,-2.1587,-2.1622,-2.1637,-2.1643,-2.165,-2.1632,-2.1698,-2.1704,-2.171,-2.1729,-2.1737,-2.1641,-2.164,-2.164,-2.164,0,-2.1574,-2.1593,-2.1616,-2.1625,-2.1635,-2.166,-2.1649,-2.1661,-2.165,-2.1644,-2.1673,-2.1674,-2.1687,-2.1695,-2.1684,-2.1729,-2.172,-2.1701,-2.167,-2.1722,-2.174,-2.1747,-2.1645,-2.1644,-2.1643,-2.1642,0,0,-2.1658,-2.166,-2.1668,-2.1671,-2.1675,-2.169,-2.1714,-2.1727,-2.1737,-2.1744,-2.1763,-2.1787,-2.1769,-2.1775,-2.1765,-2.1783,-2.183,-2.1762,-2.1761,-2.1773,-2.1879,-2.1891,-2.19,-2.1819,-2.1821,-2.1822,-2.1878,0,-2.1716,-2.1757,-2.1745,-2.1786,-2.1804,-2.1781,-2.1802,-2.1806,-2.1802,-2.1816,-2.1812,-2.1828,-2.1805,-2.1808,-2.1825,-2.1821,-2.1851,-2.1817,-2.1836,-2.1836,-2.1833,-2.191,-2.1923,-2.1976,-2.1885,-2.1886,-2.1887,0,-2.1788,-2.1798,-2.1841,-2.1842,-2.1848,-2.1868,-2.1878,-2.1892,-2.1896,-2.1892,-2.19,-2.1885,-2.1909,-2.188,-2.1911,-2.1888,-2.1896,-2.1895,-2.1896,-2.1896,-2.1863,-2.191,-2.1993,-2.2,-2.1898,-2.1897,-2.1897,0,-2.1843,-2.1868,-2.1896,-2.1901,-2.1902,-2.1916,-2.1917,-2.192,-2.1928,-2.1938,-2.1943,-2.1955,-2.1961,-2.1971,-2.196,-2.194,-2.1993,-2.1963,-2.1989,-2.1989,-2.1999,-2.1998,-2.2082,-2.2007,-2.2007,-2.2007,-2.2007,0,-2.1908,-2.1934,-2.1921,-2.1938,-2.1968,-2.1954,-2.1983,-2.1982,-2.1985,-2.2001,-2.1983,-2.1998,-2.1984,-2.1998,-2.199,-2.2017,-2.202,-2.2017,-2.2014,-2.2017,-2.2017,-2.202,-2.2015,-2.2009,-2.2009,-2.2008,-2.2008,0,-2.1973,-2.1966,-2.1995,-2.1994,-2.1995,-2.2016,-2.2015,-2.2031,-2.2027,-2.2047,-2.2052,-2.2044,-2.206,-2.2051,-2.2067,-2.2062,-2.2096,-2.2089,-2.2094,-2.2091,-2.2117,-2.2114,-2.2204,-2.2215,-2.2135,-2.2136,-2.2136,0,-2.2014,-2.2034,-2.2035,-2.2045,-2.2048,-2.2064,-2.2072,-2.206,-2.2069,-2.2076,-2.2091,-2.2105,-2.2116,-2.2142,-2.2138,-2.2151,-2.2143,-2.2174,-2.2144,-2.2147,-2.2141,-2.2139,-2.214,-2.2179,-2.218,-2.218,-2.2181,0,-2.2086,-2.2081,-2.2094,-2.2106,-2.2116,-2.2125,-2.2132,-2.2141,-2.2129,-2.2141,-2.2157,-2.2165,-2.2182,-2.2196,-2.2207,-2.2208,-2.2192,-2.2191,-2.2197,-2.2199,-2.2201,-2.2199,-2.2108,-2.2188,-2.2187,-2.2187,-2.2187,-2.2186,-2.2139,-2.2155,-2.2158,-2.2173,-2.2178,-2.2185,-2.2199,-2.2197,-2.221,-2.2222,-2.2215,-2.2233,-2.2237,-2.225,-2.2253,-2.2267,-2.2255,-2.2264,-2.2266,-2.2268,-2.2271,-2.2201,-2.227,-2.2269,-2.2269,-2.2269,-2.2269,0,-2.2208,-2.2209,-2.2223,-2.2234,-2.2245,-2.2231,-2.2238,-2.2249,-2.2265,-2.227,-2.2281,-2.23,-2.2314,-2.2311,-2.2323,-2.2335,-2.2328,-2.2339,-2.2337,-2.2337,-2.2282,-2.2275,-2.2344,-2.2344,-2.2344,-2.2344,-2.2344,-2.2344,-2.2245,-2.2272,-2.2268,-2.2296,-2.2297,-2.2315,-2.232,-2.2326,-2.233,-2.2352,-2.2363,-2.2361,-2.2363,-2.2376,-2.2388,-2.2387,-2.2391,-2.2404,-2.24,-2.2348,-2.2341,-2.2334,-2.2326,-2.2405,-2.2406,-2.2453,-2.2454,-2.2454]},{"header":{"parameterUnit":"m.s-1","parameterCategory":1,"la1":30.2991,"la2":30.254,"lo1":-89.0895,"lo2":-89.0444,"dy":0.0017,"dx":0.0017,"nx":28,"ny":28,"refTime":"2023-09-14T03:00:00:Z","depth":0,"parameterNumber":3,"parameterNumberName":"V-component_of_WINDS"},"data":[0,0,0,0,0,0,0,0,0,0,0,0,0,0,0,0,0,0,0,0,0,0,0,0,0,0,0,0,0,0,0,0,0,0,0,0,0,0,0,0,0,0,0,0,0,0,0,0,0,0,0,0,0,0,0,0,0,0,-0.9335,-0.9336,0,-0.9408,-0.9409,-0.941,-0.943,-0.943,-0.943,-0.9429,-0.9506,-0.9508,-0.951,0,0,0,0,0,0,0,0,0,0,0,0,0,-0.9214,-0.9216,-0.9335,-0.9336,-0.9337,-0.9408,-0.9409,-0.941,-0.9431,-0.943,-0.943,-0.9429,-0.9505,-0.9508,-0.9511,0,0,0,0,0,0,0,0,0,0,0,0,0,-0.9275,-0.9217,-0.9335,-0.9355,-0.9358,-0.9408,-0.9409,-0.941,-0.9431,-0.943,-0.9429,-0.9429,-0.9504,-0.9507,-0.9511,-0.9545,0,0,-0.9522,-0.9523,0,0,0,0,0,0,0,0,-0.9271,-0.9279,-0.9351,-0.9354,-0.9357,-0.9409,-0.9394,-0.9455,-0.9431,-0.9403,-0.9429,-0.9429,-0.9474,-0.948,-0.9495,-0.9549,-0.9552,-0.9522,-0.9524,-0.9526,-0.9527,0,0,0,0,0,0,0,-0.9267,-0.9276,-0.9364,-0.9353,-0.9356,-0.9362,-0.937,-0.9406,-0.9441,-0.9406,-0.9407,-0.9415,-0.9476,-0.9492,-0.9497,-0.9553,-0.9522,-0.9525,-0.9528,-0.9529,-0.9639,-0.9639,0,0,0,0,0,0,-0.9259,-0.9273,-0.9361,-0.9366,-0.9312,-0.9364,-0.9373,-0.9393,-0.9441,-0.9447,-0.9416,-0.9416,-0.9486,-0.9493,-0.95,-0.9543,-0.9526,-0.9529,-0.9531,-0.9638,-0.9639,-0.964,0,0,0,0,0,0,-0.9257,-0.9267,-0.9358,-0.932,-0.9332,-0.9367,-0.9389,-0.9395,-0.9411,-0.9449,-0.9455,-0.9426,-0.9486,-0.9495,-0.9534,-0.9546,-0.9531,-0.9534,-0.9637,-0.9638,-0.9639,-0.963,0,0,0,0,0,0,-0.9253,-0.9266,-0.9279,-0.932,-0.9334,-0.9391,-0.939,-0.9397,-0.9417,-0.9418,-0.946,-0.9466,-0.9486,-0.9528,-0.9537,-0.9551,-0.9537,-0.9636,-0.9638,-0.9639,-0.9629,-0.9631,-0.9632,0,0,0,0,0,-0.9249,-0.9274,-0.928,-0.929,-0.9351,-0.9391,-0.9399,-0.9421,-0.9418,-0.9432,-0.9456,-0.9465,-0.9543,-0.9532,-0.9542,-0.9557,-0.9635,-0.9637,-0.9639,-0.9629,-0.963,-0.9632,0,0,0,0,0,0,-0.9234,-0.928,-0.9286,-0.9325,-0.9354,-0.9395,-0.9413,-0.9422,-0.9453,-0.9452,-0.9479,-0.9488,-0.9525,-0.9545,-0.9532,-0.9593,-0.959,-0.9593,-0.9578,-0.958,-0.9581,-0.9576,-0.954,0,0,0,0,0,-0.9235,-0.9264,-0.9302,-0.9333,-0.9347,-0.9377,-0.9396,-0.941,-0.9441,-0.9453,-0.948,-0.9511,-0.9542,-0.9562,-0.9593,-0.9632,-0.9642,-0.9648,-0.9649,-0.965,-0.9653,-0.9675,-0.9678,-0.9645,-0.9645,-0.9645,0,0,-0.9238,-0.9267,-0.9283,-0.9331,-0.9355,-0.9384,-0.9387,-0.9418,-0.944,-0.9458,-0.9496,-0.9517,-0.9553,-0.9592,-0.961,-0.961,-0.9664,-0.9652,-0.9652,-0.9655,-0.9677,-0.968,-0.9683,-0.9646,-0.9646,-0.9646,0,0,-0.9258,-0.9283,-0.9311,-0.9335,-0.9371,-0.9391,-0.9398,-0.9437,-0.9451,-0.949,-0.9504,-0.9531,-0.9584,-0.9609,-0.9628,-0.9658,-0.9667,-0.9667,-0.9674,-0.9695,-0.9698,-0.97,-0.9711,-0.9714,-0.967,-0.967,-0.967,0,-0.9258,-0.9302,-0.9324,-0.9355,-0.9375,-0.9392,-0.9421,-0.9443,-0.9488,-0.9502,-0.95,-0.9568,-0.9593,-0.9638,-0.9645,-0.9661,-0.9669,-0.9663,-0.9695,-0.9698,-0.9701,-0.9711,-0.9715,-0.967,-0.967,-0.967,-0.967,0,-0.9299,-0.933,-0.9348,-0.939,-0.9413,-0.9442,-0.947,-0.949,-0.9502,-0.9522,-0.9562,-0.9592,-0.963,-0.9642,-0.9654,-0.9688,-0.9687,-0.969,-0.9687,-0.9703,-0.9713,-0.9718,-0.967,-0.967,-0.967,-0.967,0,0,-0.9313,-0.9366,-0.9373,-0.9392,-0.9433,-0.9457,-0.9487,-0.9524,-0.9541,-0.9571,-0.9597,-0.9642,-0.9645,-0.9667,-0.9683,-0.9702,-0.9723,-0.9703,-0.9704,-0.9705,-0.9763,-0.976,-0.9764,-0.9729,-0.973,-0.9731,-0.976,0,-0.9338,-0.9392,-0.9413,-0.9458,-0.9486,-0.9503,-0.9529,-0.9557,-0.9577,-0.9604,-0.9626,-0.9658,-0.9659,-0.9673,-0.9692,-0.9716,-0.9735,-0.9714,-0.9754,-0.9756,-0.9745,-0.977,-0.9767,-0.9793,-0.9764,-0.9765,-0.9765,0,-0.9375,-0.9405,-0.9452,-0.9489,-0.9502,-0.9525,-0.956,-0.9586,-0.9619,-0.9632,-0.9656,-0.967,-0.9703,-0.9698,-0.9744,-0.9729,-0.9747,-0.9761,-0.9763,-0.9768,-0.9761,-0.9775,-0.9801,-0.9805,-0.9772,-0.9771,-0.9771,0,-0.938,-0.9432,-0.9467,-0.9483,-0.9527,-0.9543,-0.9563,-0.9594,-0.9615,-0.9646,-0.9659,-0.9693,-0.9712,-0.9738,-0.9762,-0.9756,-0.9805,-0.9802,-0.9817,-0.9817,-0.9827,-0.9826,-0.9857,-0.9838,-0.9838,-0.9838,-0.9838,0,-0.9406,-0.9434,-0.947,-0.9491,-0.9523,-0.9547,-0.9578,-0.9599,-0.9627,-0.9653,-0.967,-0.9694,-0.9723,-0.9751,-0.977,-0.9805,-0.9813,-0.9825,-0.983,-0.9824,-0.9822,-0.9835,-0.9834,-0.9839,-0.9839,-0.9839,-0.9839,0,-0.9417,-0.9442,-0.9481,-0.952,-0.953,-0.9552,-0.9585,-0.9607,-0.9627,-0.966,-0.9669,-0.9701,-0.9735,-0.9761,-0.9805,-0.9818,-0.9855,-0.986,-0.9844,-0.9846,-0.986,-0.9858,-0.99,-0.9907,-0.9884,-0.9884,-0.9884,0,-0.9432,-0.9454,-0.9495,-0.9513,-0.9532,-0.9562,-0.9583,-0.9607,-0.9628,-0.9667,-0.9684,-0.9719,-0.9748,-0.9801,-0.9829,-0.9863,-0.9869,-0.9881,-0.9874,-0.9867,-0.9869,-0.9867,-0.987,-0.9882,-0.9882,-0.9882,-0.9882,0,-0.9456,-0.9467,-0.9496,-0.953,-0.9554,-0.9581,-0.9609,-0.9624,-0.9653,-0.9676,-0.9711,-0.9733,-0.9778,-0.9813,-0.9849,-0.987,-0.9881,-0.9884,-0.989,-0.9884,-0.9873,-0.9879,-0.9846,-0.9883,-0.9883,-0.9883,-0.9883,-0.9883,-0.947,-0.949,-0.9522,-0.9554,-0.9577,-0.9603,-0.9625,-0.9648,-0.9677,-0.9715,-0.9728,-0.9763,-0.9796,-0.9846,-0.9867,-0.9895,-0.9896,-0.9903,-0.9905,-0.9907,-0.9906,-0.9869,-0.9902,-0.9902,-0.9902,-0.9902,-0.9902,0,-0.9495,-0.9516,-0.9545,-0.9583,-0.9608,-0.9616,-0.9648,-0.9668,-0.9699,-0.9728,-0.9756,-0.9796,-0.983,-0.986,-0.9895,-0.9912,-0.9918,-0.992,-0.9919,-0.9924,-0.9904,-0.9896,-0.9915,-0.9915,-0.9915,-0.9915,-0.9915,-0.9915,-0.9511,-0.9545,-0.956,-0.9607,-0.9628,-0.9662,-0.968,-0.9704,-0.9727,-0.977,-0.9798,-0.9817,-0.9847,-0.9884,-0.9915,-0.9923,-0.9936,-0.9937,-0.9946,-0.9927,-0.9925,-0.9924,-0.9916,-0.9939,-0.9939,-0.9963,-0.9964,-0.9964]}]]